Weather History for KMWH - July, 2012

Change the Weather History Date:

Wednesday, July 18, 2012

  Actual Average Record
Temperature  
Mean Temperature 78 °F 73 °F  
Max Temperature 94 °F 90 °F 99 °F (2004)
Min Temperature 62 °F 57 °F 45 °F (1986)
Degree Days  
Heating Degree Days 0 0  
Month to date heating degree days 6 6  
Since 1 June heating degree days 92 61  
Since 1 July heating degree days 6 6  
Cooling Degree Days 13 8  
Month to date cooling degree days 193 125  
Year to date cooling degree days 285 235  
Since 1 June cooling degree days 258 210  
Growing Degree Days 28 (Base 50)    
Moisture  
Dew Point 56 °F    
Average Humidity 53    
Maximum Humidity 84    
Minimum Humidity 22    
Precipitation  
Precipitation 0.00 in 0.01 in 0.12 in (2007)
Month to date precipitation 0.29 0.24  
Year to date precipitation 5.19 5.01  
Sea Level Pressure  
Sea Level Pressure 29.82 in    
Wind  
Wind Speed 6 mph (SW)    
Max Wind Speed 13 mph    
Max Gust Speed 22 mph    
Visibility 10 miles    
Events      
T = Trace of Precipitation, MM = Missing Value Source: NWS Daily Summary

Daily Weather History Graph

Daily Weather History Graph

Search for Another Location

Airport or City:

Trip Planner

Search our weather history database for the weather conditions in past years. The results will help you decide how hot, cold, wet, or windy it might be!

Date:

Astronomy

Jul. 18, 2012 Rise Set
Actual Time 5:20 AM PDT 8:46 PM PDT
Civil Twilight 4:42 AM PDT 9:23 PM PDT
Nautical Twilight 3:52 AM PDT 10:13 PM PDT
Astronomical Twilight 2:47 AM PDT 11:18 PM PDT
Moon 5:02 AM PDT (7/18) 8:13 PM PDT (7/18)
Length of Visible Light 16h 41m
Length of Day
15h 25m
Waning Crescent, 0% of the Moon is Illuminated
Jul 18
Waning Crescent
Jul 18
New
Jul 26
First Quarter
Aug 1
Full
Aug 9
Last Quarter

Hourly Weather History & Observations

Time (PDT) Temp. Heat Index Dew Point Humidity Pressure Visibility Wind Dir Wind Speed Gust Speed Precip Events Conditions
12:52 AM 75.0 °F - 57.9 °F 55% 29.78 in 10.0 mi SW 4.6 mph - N/A   Clear
1:52 AM 71.1 °F - 55.9 °F 59% 29.79 in 10.0 mi Calm Calm - N/A   Clear
2:52 AM 68.0 °F - 57.9 °F 70% 29.79 in 10.0 mi Calm Calm - N/A   Clear
3:52 AM 66.9 °F - 57.9 °F 73% 29.80 in 10.0 mi SE 3.5 mph - N/A   Clear
4:52 AM 62.1 °F - 57.0 °F 84% 29.81 in 10.0 mi North 4.6 mph - N/A   Clear
5:52 AM 63.0 °F - 57.9 °F 84% 29.83 in 10.0 mi North 3.5 mph - N/A   Clear
6:52 AM 66.9 °F - 59.0 °F 76% 29.85 in 10.0 mi Calm Calm - N/A   Clear
7:52 AM 71.1 °F - 60.1 °F 68% 29.86 in 10.0 mi Calm Calm - N/A   Clear
8:52 AM 78.1 °F - 59.0 °F 52% 29.85 in 10.0 mi Variable 3.5 mph - N/A   Clear
9:52 AM 82.9 °F 83.2 °F 60.1 °F 46% 29.84 in 10.0 mi Variable 3.5 mph - N/A   Clear
10:52 AM 82.9 °F 82.4 °F 57.0 °F 41% 29.85 in 10.0 mi Variable 4.6 mph - N/A   Clear
11:52 AM 86.0 °F 84.5 °F 55.0 °F 35% 29.84 in 10.0 mi SW 8.1 mph - N/A   Clear
12:52 PM 88.0 °F 86.7 °F 57.0 °F 35% 29.83 in 10.0 mi South 9.2 mph - N/A   Clear
1:52 PM 90.0 °F 88.8 °F 57.9 °F 34% 29.82 in 10.0 mi SW 9.2 mph - N/A   Clear
2:52 PM 91.9 °F 90.3 °F 55.9 °F 30% 29.81 in 10.0 mi Variable 6.9 mph - N/A   Clear
3:52 PM 93.0 °F 90.6 °F 53.1 °F 26% 29.80 in 10.0 mi South 8.1 mph - N/A   Clear
4:52 PM 93.9 °F - 52.0 °F 24% 29.80 in 10.0 mi South 4.6 mph - N/A   Clear
5:52 PM 93.0 °F - 48.0 °F 21% 29.79 in 10.0 mi SW 6.9 mph - N/A   Clear
6:52 PM 91.9 °F - 51.1 °F 25% 29.78 in 10.0 mi SSW 9.2 mph - N/A   Clear
7:52 PM 90.0 °F 87.9 °F 55.0 °F 30% 29.78 in 10.0 mi SSW 10.4 mph - N/A   Clear
8:52 PM 86.0 °F 84.7 °F 55.9 °F 36% 29.80 in 10.0 mi South 10.4 mph - N/A   Clear
9:52 PM 84.0 °F 83.3 °F 57.0 °F 40% 29.81 in 10.0 mi South 10.4 mph - N/A   Clear
10:52 PM 80.1 °F 80.2 °F 55.9 °F 43% 29.83 in 10.0 mi West 5.8 mph - N/A   Clear
11:52 PM 75.0 °F - 57.9 °F 55% 29.84 in 10.0 mi WNW 6.9 mph - N/A   Clear